Ketchikan, AK

3:04 PM AKDT on September 21, 2018 (GMT -0800)
Ketchikan International

Weather History for PAKT - October, 2017

Change the Weather History Date:

Monday, October 16, 2017

  Actual Average Record
Temperature  
Mean Temperature 46 °F -  
Max Temperature 50 °F 50 °F 63 °F (2015)
Min Temperature 41 °F 38 °F 24 °F (1992)
Degree Days  
Heating Degree Days 20    
Moisture  
Dew Point 44 °F    
Average Humidity 94    
Maximum Humidity 100    
Minimum Humidity 87    
Precipitation  
Precipitation 0.27 in - - ()
Sea Level Pressure  
Sea Level Pressure 29.65 in    
Wind  
Wind Speed 7 mph (SE)    
Max Wind Speed 13 mph    
Max Gust Speed -    
Visibility 8 miles    
Events Rain    
Averages and records for this station are not official NWS values.
T = Trace of Precipitation, MM = Missing Value Source: NWS Daily Summary

Daily Weather History Graph

Daily Weather History Graph

Search for Another Location

Airport or City:

Astronomy

Oct. 16, 2017 Rise Set
Actual Time 7:19 AM AKDT 5:43 PM AKDT
Civil Twilight 6:42 AM AKDT 6:20 PM AKDT
Nautical Twilight 6:00 AM AKDT 7:03 PM AKDT
Astronomical Twilight 5:17 AM AKDT 7:45 PM AKDT
Moon 3:19 AM AKDT (10/16) 5:08 PM AKDT (10/16)
Length of Visible Light 11h 37m
Length of Day
10h 23m
Waning Crescent, 9% of the Moon is Illuminated
Oct 16
Waning Crescent
Oct 19
New
Oct 27
First Quarter
Nov 3
Full
Nov 10
Last Quarter

Hourly Weather History & Observations

Time (AKDT) Temp. Windchill Dew Point Humidity Pressure Visibility Wind Dir Wind Speed Gust Speed Precip Events Conditions
12:53 AM 46.0 °F 43.1 °F 44.1 °F 93% 29.82 in 10.0 mi SSE 5.8 mph - 0.06 in Rain Light Rain
1:57 AM 46.9 °F - 46.0 °F 97% 29.79 in 5.0 mi SE 8.1 mph - 0.00 in Rain Light Rain
2:22 AM 46.9 °F - 45.0 °F 93% 29.78 in 10.0 mi SE 10.4 mph - 0.01 in Rain Light Rain
2:33 AM 46.9 °F - 44.1 °F 90% 29.78 in 10.0 mi SE 10.4 mph - 0.01 in Rain Light Rain
2:53 AM 46.9 °F - 45.0 °F 93% 29.77 in 10.0 mi SE 10.4 mph - 0.01 in Rain Light Rain
3:41 AM 46.9 °F - 45.0 °F 93% 29.74 in 5.0 mi SE 5.8 mph - 0.05 in Rain Rain
3:53 AM 46.9 °F - 45.0 °F 93% 29.73 in 10.0 mi ESE 5.8 mph - 0.06 in Rain Light Rain
4:16 AM 46.9 °F - 45.0 °F 93% 29.71 in 10.0 mi SE 11.5 mph - 0.00 in Rain Light Rain
4:37 AM 46.9 °F - 45.0 °F 93% 29.69 in 10.0 mi SE 9.2 mph - 0.01 in Rain Light Rain
4:51 AM 46.4 °F 42.4 °F 44.6 °F 93% 29.69 in 10.0 mi SE 8.1 mph - 0.02 in Rain Light Rain
4:53 AM 46.0 °F 41.9 °F 45.0 °F 96% 29.69 in 10.0 mi SE 8.1 mph - 0.02 in Rain Light Rain
5:26 AM 46.0 °F 41.4 °F 44.1 °F 93% 29.66 in 4.0 mi SE 9.2 mph - 0.07 in Rain Rain
5:40 AM 46.0 °F 41.4 °F 44.1 °F 93% 29.65 in 7.0 mi SE 9.2 mph - 0.08 in Rain Light Rain
5:53 AM 46.0 °F 42.5 °F 45.0 °F 96% 29.65 in 5.0 mi SSE 6.9 mph - 0.10 in Rain Light Rain
6:08 AM 46.4 °F 41.9 °F 44.6 °F 93% 29.64 in 8.0 mi SE 9.2 mph - N/A Rain Light Rain
6:51 AM 46.4 °F 40.7 °F 44.6 °F 93% 29.63 in 6.0 mi ESE 12.7 mph - N/A Rain Light Rain
6:53 AM 46.4 °F 41.1 °F 44.6 °F 93% 29.63 in 6.0 mi ESE 11.5 mph - N/A Rain Light Rain
7:53 AM 44.6 °F 42.2 °F 44.6 °F 100% 29.62 in 5.0 mi SSE 4.6 mph - N/A Rain Light Rain
8:53 AM 46.4 °F 44.3 °F 44.6 °F 93% 29.61 in 4.0 mi SSE 4.6 mph - N/A Rain Light Rain
9:53 AM 46.0 °F 43.9 °F 45.0 °F 96% 29.60 in 3.0 mi SSE 4.6 mph - 0.02 in   Overcast
10:53 AM 46.4 °F 42.4 °F 44.6 °F 93% 29.59 in 3.0 mi SE 8.1 mph - N/A Rain Light Rain
11:53 AM 46.4 °F 42.4 °F 44.6 °F 93% 29.61 in 3.0 mi ESE 8.1 mph - N/A Rain Light Rain
12:53 PM 46.4 °F 42.9 °F 46.4 °F 100% 29.61 in 4.0 mi ESE 6.9 mph - N/A   Overcast
1:53 PM 48.2 °F - 46.4 °F 93% 29.62 in 10.0 mi ESE 8.1 mph - N/A   Overcast
2:53 PM 50.0 °F - 46.4 °F 87% 29.62 in 10.0 mi ESE 6.9 mph - N/A   Overcast
3:53 PM 50.0 °F - 46.4 °F 87% 29.62 in 10.0 mi East 3.5 mph - N/A Rain Light Rain
4:53 PM 48.2 °F - 46.4 °F 93% 29.61 in 10.0 mi Calm Calm - N/A   Overcast
5:53 PM 46.0 °F - 44.1 °F 93% 29.61 in 10.0 mi Calm Calm - N/A   Mostly Cloudy
6:53 PM 43.0 °F - 42.1 °F 97% 29.60 in 10.0 mi Calm Calm - N/A   Scattered Clouds
7:53 PM 43.0 °F - 42.1 °F 97% 29.61 in 10.0 mi Calm Calm - N/A   Mostly Cloudy
8:53 PM 42.1 °F - 39.9 °F 92% 29.60 in 10.0 mi Calm Calm - N/A   Scattered Clouds
9:29 PM 41.0 °F 39.0 °F 39.9 °F 96% 29.60 in 10.0 mi WNW 3.5 mph - N/A   Mostly Cloudy
9:45 PM 42.1 °F 40.2 °F 41.0 °F 96% 29.60 in 10.0 mi WNW 3.5 mph - 0.00 in Rain Light Rain
9:53 PM 42.1 °F 39.2 °F 41.0 °F 96% 29.60 in 10.0 mi NW 4.6 mph - 0.00 in Rain Light Rain
10:33 PM 43.0 °F 40.3 °F 42.1 °F 97% 29.59 in 10.0 mi NW 4.6 mph - 0.00 in   Mostly Cloudy
10:45 PM 43.0 °F 40.3 °F 42.1 °F 97% 29.59 in 10.0 mi NW 4.6 mph - 0.00 in   Partly Cloudy
10:53 PM 43.0 °F 40.3 °F 42.1 °F 97% 29.60 in 10.0 mi WNW 4.6 mph - 0.00 in   Partly Cloudy
11:53 PM 42.1 °F 39.2 °F 41.0 °F 96% 29.60 in 10.0 mi North 4.6 mph - N/A   Partly Cloudy